Location: Wangen/Allg�u
(47.6873°N, 9.8307°E)
Time: 16:33:51
(UTC+01:00)

ISS - Pass Details

Date: 03 December 2021
Orbit: 413 x 422 km, 51.6° (Epoch: 18 January)

Event Time Altitude Azimuth Distance (km) Brightness Sun altitude
Rises 17:00:33 0° 287° (WNW) 2,386 0.9 -5.3°
Reaches altitude 10° 17:02:43 10° 294° (WNW) 1,518 -0.3 -5.6°
Maximum altitude 17:06:00 43° 8° (N) 606 -3.2 -6.1°
Drops below altitude 10° 17:09:16 10° 81° (E) 1,511 -1.5 -6.6°
Enters shadow 17:09:47 - 84° (E) 1,713 -1.3 -6.6°
